This is the latest recevied weather packets stored in our database for station/object WA6ODQ-13. If no packets are shown the sender has not sent any weather packets the latest 10 day(s).
| Time | Temp. | Humidity | Pressure | Rain* | Wind** | Luminosity | Snow |
|---|---|---|---|---|---|---|---|
| 1777832933 | 16.67° C | 67% | 1010.6 hPa | 0 mm | - | 345 W/m² | - |
| 1777832631 | 16.67° C | 67% | 1010.3 hPa | 0 mm | - | 364 W/m² | - |
| 1777832328 | 16.67° C | 66% | 1010.4 hPa | 0 mm | - | 357 W/m² | - |
| 1777832025 | 16.67° C | 68% | 1010.3 hPa | 0 mm | - | 419 W/m² | - |
| 1777831721 | 16.67° C | 67% | 1010.4 hPa | 0 mm | - | 457 W/m² | - |
| 1777831420 | 16.11° C | 67% | 1010.3 hPa | 0 mm | - | 352 W/m² | - |
| 1777831116 | 16.11° C | 68% | 1010.3 hPa | 0 mm | - | 345 W/m² | - |
| 1777830814 | 16.11° C | 68% | 1010.4 hPa | 0 mm | - | 314 W/m² | - |
| 1777830509 | 16.11° C | 68% | 1010.3 hPa | 0 mm | - | 300 W/m² | - |
| 1777830208 | 16.11° C | 68% | 1010.3 hPa | 0 mm | - | 424 W/m² | - |
| 1777829903 | 16.11° C | 69% | 1010.2 hPa | 0 mm | - | 363 W/m² | - |
| 1777829599 | 16.11° C | 69% | 1010.2 hPa | 0 mm | - | 317 W/m² | - |
| 1777829296 | 16.11° C | 68% | 1010 hPa | 0 mm | - | 360 W/m² | - |
| 1777828994 | 15.56° C | 71% | 1010 hPa | 0 mm | - | 424 W/m² | - |
| 1777828689 | 15.56° C | 72% | 1010 hPa | 0 mm | - | 333 W/m² | - |
| 1777828386 | 15.56° C | 72% | 1010 hPa | 0 mm | - | 334 W/m² | - |
| 1777828084 | 15.56° C | 74% | 1010 hPa | 0 mm | - | 334 W/m² | - |
| 1777827780 | 15° C | 75% | 1010 hPa | 0 mm | - | 270 W/m² | - |
| 1777827477 | 15° C | 74% | 1010.1 hPa | 0 mm | - | 275 W/m² | - |
| 1777827175 | 15° C | 75% | 1010 hPa | 0 mm | - | 227 W/m² | - |
| 1777826870 | 15° C | 76% | 1009.9 hPa | 0 mm | - | 223 W/m² | - |
| 1777826569 | 14.44° C | 77% | 1009.8 hPa | 0 mm | - | 205 W/m² | - |
| 1777826264 | 15° C | 77% | 1009.7 hPa | 0 mm | - | 195 W/m² | - |
| 1777825962 | 14.44° C | 77% | 1009.8 hPa | 0 mm | - | 191 W/m² | - |
| 1777825659 | 14.44° C | 77% | 1009.9 hPa | 0 mm | - | 189 W/m² | - |
* Rain latest hour (hover to see other rain measurements)
** Current wind speed in m/s (hover to see current wind gust speed)